Weather History for KRCA - May, 2013

Change the Weather History Date:

Thursday, May 23, 2013

  Actual Average Record
Temperature  
Mean Temperature 54 °F -  
Max Temperature 68 °F 66 °F 78 °F (2014)
Min Temperature 43 °F 45 °F 26 °F (2002)
Degree Days  
Heating Degree Days 10    
Growing Degree Days 4 (Base 50)    
Moisture  
Dew Point 44 °F    
Average Humidity 65    
Maximum Humidity 96    
Minimum Humidity 43    
Precipitation  
Precipitation 0.00 in - - ()
Sea Level Pressure  
Sea Level Pressure 30.11 in    
Wind  
Wind Speed 15 mph (SSE)    
Max Wind Speed 28 mph    
Max Gust Speed 36 mph    
Visibility 10 miles    
Events      
Averages and records for this station are not official NWS values.
T = Trace of Precipitation, MM = Missing Value Source: NWS Daily Summary

Daily Weather History Graph

Daily Weather History Graph

Search for Another Location

Airport or City:

Trip Planner

Search our weather history database for the weather conditions in past years. The results will help you decide how hot, cold, wet, or windy it might be!

Date:

Astronomy

May. 23, 2013 Rise Set
Actual Time 5:17 AM MDT 8:21 PM MDT
Civil Twilight 4:43 AM MDT 8:55 PM MDT
Nautical Twilight 3:59 AM MDT 9:40 PM MDT
Astronomical Twilight 3:06 AM MDT 10:33 PM MDT
Moon 6:53 PM MDT (5/23) 4:08 AM MDT (5/23)
Length of Visible Light 16h 12m
Length of Day
15h 03m
Waxing Gibbous, 97% of the Moon is Illuminated
May 23
Waxing Gibbous
May 24
Full
May 31
Last Quarter
Jun 8
New
Jun 16
First Quarter

Hourly Weather History & Observations

Time (MDT) Temp. Windchill Dew Point Humidity Pressure Visibility Wind Dir Wind Speed Gust Speed Precip Events Conditions
12:58 AM 50.5 °F - 46.0 °F 85% 30.19 in 10.0 mi SE 10.4 mph - N/A   Overcast
1:58 AM 46.8 °F - 44.1 °F 90% 30.20 in 10.0 mi SE 5.8 mph - N/A   Partly Cloudy
2:58 AM 45.7 °F 41.5 °F 43.5 °F 92% 30.19 in 10.0 mi SE 8.1 mph - N/A   Mostly Cloudy
3:58 AM 45.7 °F 42.7 °F 43.7 °F 93% 30.18 in 10.0 mi SSE 5.8 mph - N/A   Partly Cloudy
4:58 AM 43.3 °F 39.9 °F 42.1 °F 95% 30.19 in 10.0 mi SSW 5.8 mph - N/A   Clear
5:58 AM 43.9 °F 39.3 °F 42.8 °F 96% 30.19 in 10.0 mi South 8.1 mph - N/A   Clear
6:58 AM 48.6 °F - 46.6 °F 93% 30.19 in 10.0 mi South 11.5 mph - N/A   Clear
7:58 AM 51.3 °F - 45.5 °F 81% 30.19 in 10.0 mi South 15.0 mph - N/A   Clear
8:58 AM 55.2 °F - 39.7 °F 56% 30.18 in 10.0 mi SSE 25.3 mph 32.2 mph N/A   Clear
9:58 AM 57.0 °F - 39.2 °F 51% 30.17 in 10.0 mi SSE 26.5 mph 33.4 mph N/A   Clear
10:58 AM 57.6 °F - 40.3 °F 53% 30.16 in 10.0 mi South 26.5 mph 34.5 mph N/A   Clear
11:58 AM 60.8 °F - 41.7 °F 49% 30.14 in 10.0 mi SSE 24.2 mph 33.4 mph N/A   Clear
12:58 PM 62.6 °F - 42.3 °F 47% 30.12 in 10.0 mi SSE 24.2 mph 35.7 mph N/A   Partly Cloudy
1:58 PM 64.8 °F - 42.6 °F 45% 30.10 in 10.0 mi SE 26.5 mph 33.4 mph N/A   Scattered Clouds
2:58 PM 64.6 °F - 44.4 °F 48% 30.08 in 10.0 mi SE 23.0 mph 33.4 mph N/A   Partly Cloudy
3:58 PM 65.1 °F - 44.2 °F 47% 30.06 in 10.0 mi SE 24.2 mph 35.7 mph N/A   Scattered Clouds
4:58 PM 66.6 °F - 44.8 °F 45% 30.05 in 10.0 mi SE 25.3 mph 32.2 mph N/A   Partly Cloudy
5:58 PM 66.2 °F - 43.2 °F 43% 30.03 in 10.0 mi SSE 24.2 mph 32.2 mph N/A   Clear
6:58 PM 66.0 °F - 42.6 °F 43% 30.00 in 10.0 mi SE 27.6 mph 33.4 mph N/A   Clear
7:58 PM 63.1 °F - 43.5 °F 49% 30.00 in 10.0 mi SE 17.3 mph - N/A   Clear
8:58 PM 60.1 °F - 44.6 °F 57% 29.99 in 10.0 mi SE 18.4 mph - N/A   Clear
9:58 PM 58.8 °F - 45.7 °F 62% 29.99 in 10.0 mi SE 16.1 mph - N/A   Clear
10:58 PM 57.2 °F - 46.9 °F 69% 29.99 in 10.0 mi SSE 16.1 mph - N/A   Mostly Cloudy
11:58 PM 56.3 °F - 46.6 °F 70% 29.96 in 10.0 mi SSE 19.6 mph 28.8 mph N/A   Clear